Hourly Data Report for June 26, 2017

DRYDEN REGIONAL
ONTARIO

49°49'39.000" N
92°44'39.000" W
412.70 m
6032125
71527
YHD

Download Data

Hourly Data (June 2017)
Hourly Data Report for June 26, 2017
TIME
LST
Temp Definition
°C
Dew Point Definition
°C
Rel Hum Definition
%
Precip. Amount Definition
mm

Wind Dir Definition
10's deg

Wind Spd Definition
km/h
Visibility Definition
km
Stn Press Definition
kPa
Hmdx Definition


Wind Chill Definition


Weather Definition


00:00 8.6 7.1 90 0.0 26 11 16.1 97.02     LegendNANA
01:00 7.7 6.8 94 0.0 27 11 16.1 96.99     LegendNANA
02:00 7.5 6.9 96 0.0 27 11 16.1 96.97     LegendNANA
03:00 7.1 6.4 95 0.0 27 11 16.1 96.98     LegendNANA
04:00 6.9 6.3 96 0.0 28 11 16.1 96.99     LegendNANA
05:00 7.8 6.8 93 0.0 26 11 16.1 97.00     LegendNANA
06:00 9.0 7.5 90 0.0 27 9 16.1 97.00     LegendNANA
07:00 12.0 8.6 79 0.0 29 8 16.1 97.01     LegendNANA
08:00 13.2 8.1 71 0.0 31 11 16.1 97.02     LegendNANA
09:00 14.9 7.4 61 0.0 33 9 16.1 97.02     LegendNANA
10:00 16.3 7.0 54 0.0 28 15 16.1 96.99     LegendNANA
11:00 16.0 7.8 58 0.0 28 15 16.1 96.95     LegendNANA
12:00 17.4 7.9 53 0.0 29 21 16.1 96.90     LegendNANA
13:00 16.7 6.1 49 0.0 33 18 16.1 96.91     LegendNANA
14:00 17.6 7.4 51 0.0 30 9 16.1 96.86     LegendNANA
15:00 18.1 6.7 47 0.0 31 17 16.1 96.83     LegendNANA
16:00 19.3 6.5 43 0.0 31 15 16.1 96.78     LegendNANA
17:00 18.3 7.2 48 0.0 32 13 16.1 96.77     LegendNANA
18:00 19.3 6.9 44 0.0 29 5 16.1 96.74     LegendNANA
19:00 18.3 8.2 51 0.0 34 5 16.1 96.73     LegendNANA
20:00 17.7 8.6 55 0.0   0 16.1 96.70     LegendNANA
21:00 15.0 9.2 68 0.0 21 11 16.1 96.69     LegendNANA
22:00 14.0 9.8 76 0.0 19 13 16.1 96.65     LegendNANA
23:00 12.5 9.2 80 0.0 22 11 16.1 96.64     LegendNANA

Notes on Data Quality.

Legend

  • E = Estimated
  • M = Missing
  • NA = Not Available*
  • [empty] = Indicates an unobserved value
Date modified: